#timestamp,LO_Frequency,Hit,StdDev 
1621332015.6,286046999.0,N
1621332035.5,286046998.5,N
1621332055.3,286046998.4,N
1621332075.2,286046998.1,N
1621332095.9,286046998.8,N
1621332115.7,286046998.1,N
1621332135.6,286046998.7,N
1621332155.4,286046998.8,N
1621332175.2,286046998.5,N
1621332195.1,286046998.6,N
1621332196.0,286046998.6,N
1621332215.8,286046998.5,N
1621332235.7,286046998.8,N
1621332255.5,286046998.8,N
1621332275.3,286047001.1,N
1621332295.2,286047001.1,N
1621332315.0,286046998.4,N
1621332315.9,286046998.4,N
1621332335.8,286046998.1,N
1621332355.6,286046999.0,N
1621332375.4,286046998.5,N
1621332395.3,286046998.7,N
1621332415.1,286046998.9,N
1621332435.8,286046999.0,N
1621332455.7,286046998.7,N
1621332475.5,286046996.9,Y
1621332495.4,286046998.6,P
1621332515.2,286047001.0,P
1621332535.0,286047001.1,N
1621332535.9,286047001.1,N
1621332555.8,286047001.2,N
1621332575.6,286046998.4,N
1621332595.4,286046998.1,N
1621332615.3,286047001.1,N
1621332635.1,286046998.6,N
1621332655.9,286047000.9,N
1621332675.7,286047000.8,N
1621332695.5,286046998.6,N
1621332715.4,286047001.2,N
1621332735.2,286046998.4,N
1621332755.1,286046998.1,N
1621332756.0,286046998.1,N
1621332775.8,286047001.2,N
1621332795.6,286046998.2,N
1621332815.5,286046998.8,N
1621332835.3,286046998.4,N
1621332855.1,286046998.8,N
1621332875.9,286046998.5,N
1621332895.7,286046998.5,N
1621332915.6,286046998.5,N
1621332935.4,286046998.4,N
1621332955.2,286046998.4,N
1621332975.1,286046998.5,N
1621332976.0,286046998.5,N
1621332995.8,286046998.9,N
1621333015.7,286046998.4,N
1621333035.5,286046998.3,N
1621333055.3,286046998.9,N
1621333075.2,286046999.3,N
1621333095.9,286046999.1,N
1621333115.7,286046999.6,N
1621333135.6,286046998.6,N
1621333155.4,286046998.5,N
1621333175.3,286046999.2,N
1621333195.1,286046998.4,N
1621333196.0,286046998.4,N
1621333215.8,286046998.8,N
1621333235.7,286046998.7,N
1621333255.5,286046998.8,N
1621333275.3,286046996.5,Y
1621333295.2,286046998.5,P
1621333315.0,286046998.1,P
1621333315.9,286046998.1,P
1621333335.8,286046998.7,Y
1621333355.6,286047000.2,P
1621333375.4,286046999.9,N
1621333395.3,286047000.0,N
1621333415.1,286046999.7,N
1621333435.9,286047000.0,N
1621333455.7,286047000.2,N
1621333475.5,286047000.0,N
1621333495.4,286047001.0,N
1621333515.2,286047000.5,N
1621333535.0,286047000.2,N
1621333535.9,286047000.2,N
1621333555.8,286047000.1,N
1621333575.6,286047000.5,N
1621333595.5,286046999.9,N
1621333615.3,286047000.2,N
1621333635.1,286046999.9,N
1621333655.9,286047000.0,N
1621333675.7,286047002.3,Y
1621333695.6,286047003.7,P
1621333715.4,286047002.9,N
1621333735.2,286047003.3,N
1621333755.1,286047005.1,Y
1621333756.0,286047005.1,P
1621333775.8,286047001.3,N
1621333795.7,286047002.0,N
1621333815.5,286047002.0,N
1621333835.3,286047002.4,N
1621333855.2,286047002.7,N
1621333875.0,286047001.0,N
1621333875.9,286047001.0,N
1621333895.7,286047000.5,N
1621333915.6,286047000.9,N
1621333935.4,286047000.6,N
1621333955.3,286047001.0,N
1621333975.1,286047001.0,N
1621333976.0,286047001.0,N
1621333995.8,286047000.9,N
1621334015.7,286047000.9,N
1621334035.5,286047001.0,N
1621334055.4,286046998.2,N
1621334075.2,286047000.3,N
1621334095.0,286047000.7,N
1621334095.9,286047000.7,N
1621334115.8,286047000.9,N
1621334135.6,286047001.2,N
1621334155.4,286047000.4,N
1621334175.3,286047000.5,N
1621334195.1,286047000.6,N
1621334215.9,286046998.4,N
1621334235.7,286046998.4,N
1621334255.5,286046998.3,N
1621334275.4,286046998.1,N
1621334295.2,286046998.1,N
1621334315.1,286046998.1,N
1621334316.0,286046998.1,N
1621334335.8,286046998.1,N
1621334355.6,286047001.2,N
1621334375.5,286046998.5,N
1621334395.3,286047000.7,N
1621334415.1,286046998.6,N
1621334435.9,286047000.8,N
1621334455.7,286047001.0,N
1621334475.6,286046998.2,N
1621334495.4,286046998.1,N
1621334515.2,286046998.2,N
1621334535.1,286047000.6,N
1621334536.0,286047000.6,N
1621334555.8,286047000.5,N
1621334575.7,286047000.3,N
1621334595.5,286047000.5,N
1621334615.3,286047000.3,N
1621334635.2,286046999.8,N
1621334655.0,286046999.7,N
1621334655.9,286046999.7,N
1621334675.7,286046999.9,N
1621334695.6,286047000.0,N
1621334715.4,286047000.6,N
1621334735.3,286047000.0,N
1621334755.1,286046999.9,N
1621334775.8,286047000.6,N
1621334795.7,286047001.0,N
1621334815.5,286047000.3,N
1621334835.4,286047000.6,N
1621334855.2,286047001.2,N
1621334875.0,286046998.1,N
1621334875.9,286046998.1,N
1621334895.8,286046998.1,N
1621334915.6,286046998.1,N
1621334935.4,286047001.2,N
1621334955.3,286047000.0,N
1621334975.1,286047000.1,N
1621334995.9,286047000.9,N
1621335015.7,286047001.0,N
1621335035.5,286047000.9,N
1621335055.4,286047000.9,N
1621335075.2,286046999.9,N
1621335095.1,286047000.1,N
1621335096.0,286047000.1,N
1621335115.8,286047001.0,N
1621335135.6,286047001.0,N
1621335155.5,286047000.2,N
1621335175.3,286047000.0,N
1621335195.2,286047000.8,N
1621335215.9,286047001.0,N
1621335235.7,286046998.5,N
1621335255.6,286047001.1,N
1621335275.4,286047000.5,N
1621335295.2,286047001.0,N
1621335315.1,286047000.6,N
1621335316.0,286047000.6,N
1621335335.8,286046999.9,N
1621335355.7,286046999.8,N
1621335375.5,286046999.9,N
1621335395.3,286046999.9,N
1621335415.2,286047000.0,N
1621335435.0,286046999.9,N
1621335435.9,286046999.9,N
1621335455.8,286047000.9,N
1621335475.6,286047001.2,N
1621335495.4,286046998.5,N
1621335515.3,286046998.2,N
1621335535.1,286047001.1,N
1621335555.8,286047001.2,N
1621335575.7,286046998.1,N
1621335595.5,286047000.8,N
